Temperature
10 10 10 10 10 10 10 11 11 11 11 11 11 11 11 11 11 11 11 11 11 11 11 11 11 11 11 11 10 11 11 10 10 10 10 10 9 9 9 9 9 8 8
10 9 9 10 10 10 10 10 10 11 11 10 10 10 10 10 10 10 10 10 10 10 10 10 10 10 10 10 10 10 10 10 9 9 9 9 9 9 8 8 8 8 8
10 10 9 9 10 10 10 10 10 10 10 10 10 10 10 10 10 10 10 10 10 10 10 10 10 10 10 10 10 9 9 9 9 9 8 8 8 8 8 8 8 7 7
10 10 9 9 10 10 10 10 10 10 10 10 10 10 10 10 10 10 10 10 9 9 9 9 9 10 9 9 9 9 9 9 9 8 8 8 7 7 7 7 7 7 7
10 10 10 9 10 10 10 10 10 10 10 10 9 9 9 9 9 9 9 9 9 9 9 9 9 9 9 9 9 9 9 8 8 8 8 7 7 7 6 6 7 7 7
10 10 9 9 9 9 9 9 9 9 9 9 9 9 9 9 9 9 9 9 9 9 9 9 9 9 8 8 8 8 8 8 8 7 7 7 6 6 6 5 6 6 6
10 10 9 9 9 9 9 9 9 9 9 9 9 9 9 9 9 9 8 8 8 8 8 8 8 8 8 8 8 8 8 7 7 7 7 6 6 6 5 5 5 5 5
10 9 9 9 9 9 9 9 9 9 9 9 9 9 9 9 9 8 8 8 8 8 8 8 8 8 7 7 7 7 7 7 7 7 6 6 6 5 5 5 4 4 4
10 9 9 9 9 9 9 9 9 9 9 9 8 8 8 8 8 8 8 8 8 8 7 7 7 7 7 7 7 7 7 6 6 6 6 6 5 5 5 5 4 4 3
10 9 9 9 9 9 9 9 9 9 9 8 8 8 8 8 8 8 7 7 7 7 7 7 7 7 7 7 6 6 6 6 6 6 5 5 5 5 5 4 4 4 3
10 9 9 9 9 9 9 9 9 8 8 8 8 8 8 8 8 7 7 7 7 7 7 7 7 7 6 6 6 6 5 5 5 5 5 5 5 4 4 4 4 3 3
10 9 9 9 9 9 9 9 8 8 8 8 8 8 7 7 7 7 7 7 7 7 7 6 6 6 6 6 5 5 5 5 5 4 4 4 4 4 4 3 3 3 3
9 9 9 8 8 8 8 8 8 8 8 8 8 7 7 7 7 7 7 7 6 6 6 6 6 6 6 5 5 5 5 4 4 4 4 4 3 3 3 3 3 2 2
9 9 8 8 8 8 8 8 8 8 8 8 7 7 7 7 7 6 6 6 6 6 6 6 5 5 5 5 5 5 4 4 4 4 3 3 3 3 3 2 2 2 2
9 8 8 8 8 8 7 7 7 7 7 7 7 7 6 6 6 6 6 6 6 6 5 5 5 5 5 5 4 4 4 4 4 3 3 3 2 2 2 2 1 1 1
8 8 8 7 7 7 7 7 7 7 7 7 6 6 6 6 6 6 5 5 5 5 5 5 5 4 4 4 4 4 4 3 3 3 3 3 2 2 1 1 1 1 1
8 7 7 7 7 7 7 7 7 6 6 6 6 6 6 5 5 5 5 5 5 5 4 4 4 4 4 4 3 3 3 3 3 3 2 2 2 2 1 1 1 1 0
7 7 7 7 7 6 6 6 6 6 6 5 5 5 5 5 5 5 4 4 4 4 4 4 4 4 3 3 3 3 3 2 2 2 2 2 2 1 1 0 0 0 0
7 7 7 6 6 6 6 6 5 5 5 5 5 5 5 4 4 4 4 4 4 4 4 3 3 3 3 3 3 2 2 2 2 2 2 1 1 1 -0 -0 -0 -0 -0
7 6 6 6 6 6 5 5 5 5 5 4 4 4 4 4 4 4 4 4 3 3 3 3 3 3 3 2 2 2 2 2 2 1 1 1 0 0 -0 -1 -1 -1 -1
6 6 6 6 5 5 5 5 5 4 4 4 4 4 4 3 3 3 3 3 3 3 3 3 3 2 2 2 2 1 1 1 1 1 1 0 -0 -0 -1 -1 -1 -1 -2
6 5 5 5 5 5 4 4 4 4 4 4 4 3 3 3 3 3 3 3 2 2 2 2 2 2 2 2 1 1 0 0 0 0 -0 -0 -1 -1 -1 -2 -2 -2 -2
5 5 4 4 4 4 4 4 4 3 3 3 3 3 3 3 3 2 2 2 2 2 2 2 1 1 1 1 1 0 -0 -0 -0 -1 -1 -1 -1 -2 -2 -2 -2 -3 -3
4 4 4 4 4 4 4 3 3 3 3 3 3 3 2 2 2 2 2 2 2 1 1 1 1 1 1 1 0 -0 -0 -1 -1 -1 -1 -2 -2 -2 -2 -2 -3 -3 -3
4 4 3 3 3 3 3 3 3 2 2 2 2 2 2 2 2 2 1 1 1 1 1 1 0 0 -0 -0 -1 -1 -1 -1 -1 -2 -2 -2 -2 -2 -3 -3 -3 -3 -4
3 3 3 3 3 2 2 2 2 2 2 2 2 1 1 1 1 1 1 1 1 0 0 -0 -0 -0 -1 -1 -1 -1 -2 -2 -2 -2 -3 -3 -3 -3 -3 -4 -4 -4 -4
Wind_Speed
6 7 7 7 7 7 7 6 6 5 4 3 3 3 3 3 3 4 6 6 6 6 6 4 4 4 3 3 4 3 3 3 3 2 2 1 1 2 2 2 2 3 5
7 7 6 6 6 6 6 5 5 5 4 3 2 2 3 2 3 3 4 5 5 5 5 4 3 3 3 4 4 3 3 2 3 2 2 2 1 1 1 2 1 1 3
8 7 6 6 6 5 5 5 5 5 5 4 3 3 2 1 2 2 2 2 2 3 4 4 3 3 2 2 3 3 3 2 2 2 2 1 2 2 1 1 1 1 1
8 7 7 6 6 6 5 5 5 5 4 4 3 2 2 1 1 2 2 2 2 2 2 2 3 2 2 2 2 2 2 2 2 2 1 0 0 1 2 2 1 0 0
8 8 7 6 6 6 5 4 5 5 4 3 2 2 1 1 1 1 2 2 2 1 1 1 2 2 1 2 2 2 1 1 1 1 2 2 2 1 1 3 3 2 1
8 8 7 7 5 6 5 5 5 4 4 3 3 2 3 2 2 2 2 2 2 1 1 1 0 1 1 1 1 1 1 1 1 1 1 1 1 1 1 2 3 3 2
6 7 8 7 6 6 6 5 5 5 4 4 3 3 3 3 3 2 2 2 1 2 2 1 1 0 0 1 1 1 1 1 1 1 1 1 1 1 1 2 3 3 3
6 6 7 7 7 7 6 6 5 5 5 4 4 3 3 2 2 2 2 2 2 2 2 2 2 1 1 1 1 1 2 1 1 2 1 1 1 1 1 1 2 3 3
6 6 6 6 6 6 6 6 5 4 4 4 4 4 3 3 3 2 2 2 2 2 2 2 2 2 2 2 2 2 2 2 2 2 2 2 2 1 1 1 1 2 3
6 6 5 5 5 5 5 5 5 4 4 4 4 3 4 4 3 3 3 3 3 2 3 3 3 3 3 2 2 2 2 2 2 2 2 2 2 2 2 2 2 2 3
5 5 5 5 5 5 5 4 4 4 3 3 3 3 4 4 4 4 4 4 3 3 4 4 4 4 4 3 3 4 3 3 3 3 3 3 3 3 2 2 2 3 3
5 5 5 5 5 5 5 5 5 4 4 3 3 3 3 3 4 4 4 4 4 4 4 4 4 4 4 4 4 4 4 4 4 4 4 4 3 3 3 3 3 4 4
4 4 4 5 5 5 5 5 5 4 4 3 3 3 3 4 4 4 4 4 4 4 4 4 5 5 4 4 4 5 4 4 5 4 4 4 4 4 4 4 4 4 4
4 3 3 4 5 5 4 4 4 3 3 3 3 3 4 4 4 3 3 4 3 4 4 4 5 5 4 4 4 4 4 4 4 4 5 4 5 5 5 5 5 4 4
4 4 3 3 3 3 3 3 3 3 3 3 3 4 3 3 3 3 3 3 3 4 4 4 4 4 4 4 4 4 4 4 5 5 5 5 6 7 6 5 4 4 4
3 3 3 3 3 3 3 3 3 3 3 3 4 3 3 3 3 3 3 3 4 4 4 4 4 4 4 5 7 5 4 5 5 5 5 5 6 8 10 10 8 7 6
2 2 3 3 3 3 3 3 3 3 3 4 4 4 3 3 3 3 3 4 4 4 4 4 4 5 5 7 7 7 5 5 5 5 5 5 5 7 5 8 10 9 11
2 2 2 2 2 2 2 2 2 3 4 4 4 4 3 4 3 3 4 4 3 4 4 4 5 5 6 7 8 8 5 5 5 6 6 5 5 5 5 5 5 6 7
1 1 1 1 1 2 3 2 3 3 4 4 4 4 4 4 4 4 5 4 3 4 4 4 4 5 6 8 8 7 4 4 6 5 5 5 5 9 9 6 6 6 6
1 0 0 0 1 2 2 3 3 4 5 4 4 3 3 4 5 5 4 3 3 4 4 4 5 6 6 8 8 8 4 4 4 4 5 7 8 9 9 6 6 7 6
1 1 1 2 3 2 2 4 4 5 4 3 3 3 4 4 5 4 3 3 3 4 4 5 5 5 6 7 9 8 4 5 4 4 4 5 9 10 10 8 6 9 7
2 2 2 3 3 3 3 5 6 5 3 3 3 4 4 4 3 4 4 4 4 4 5 5 5 4 5 6 7 9 8 7 5 5 4 5 9 10 10 8 8 10 8
3 3 3 4 4 4 5 6 6 4 3 4 5 5 4 4 4 4 4 4 4 4 4 4 5 4 4 4 8 9 9 9 6 5 7 8 10 9 8 9 10 8 5
3 3 3 4 5 5 5 6 4 4 4 5 5 4 4 4 4 4 4 4 4 4 4 4 4 4 4 4 3 4 5 7 6 5 7 9 9 7 7 7 6 5 5
4 3 4 5 6 5 4 4 4 4 5 5 5 4 4 4 4 4 4 5 5 5 5 5 4 4 5 6 7 5 4 4 5 4 3 3 4 4 4 4 4 4 4
4 4 5 5 5 5 5 5 4 5 5 5 5 4 4 4 4 4 4 6 6 7 8 8 7 6 9 11 11 11 10 10 9 6 4 5 5 6 5 5 5 4 5
Wind_Direction
123 117 116 116 112 109 108 112 112 107 108 107 103 101 94 85 75 71 64 52 41 31 33 32 32 23 24 14 7 11 10 6 357 352 328 299 147 112 99 75 63 60 56
128 125 124 125 120 118 116 117 117 111 102 102 104 104 107 104 104 90 73 58 48 32 25 25 28 22 18 18 13 16 6 353 15 13 336 335 327 323 133 110 102 58 55
145 142 142 135 129 126 127 129 119 113 106 98 97 94 88 89 96 106 99 72 67 54 35 22 26 15 22 23 6 17 21 351 350 35 43 17 316 322 290 214 144 103 74
144 145 145 142 140 136 133 131 121 113 110 110 115 120 130 141 153 147 147 139 114 87 49 24 26 18 15 8 352 35 13 3 340 342 11 226 284 315 310 291 244 141 102
145 144 146 146 140 136 138 132 121 116 117 126 140 145 136 138 136 148 153 153 144 145 109 36 22 16 16 12 6 15 11 357 345 334 329 318 306 251 238 289 304 312 268
143 143 143 139 136 137 139 138 137 140 149 162 169 170 163 160 165 184 173 181 179 180 171 176 324 347 14 1 346 334 343 333 327 323 322 320 315 322 298 287 303 298 278
142 147 151 150 150 151 151 157 157 159 166 174 182 184 187 188 194 200 191 198 193 193 197 186 223 255 286 296 317 317 309 294 297 297 304 319 287 305 305 293 294 295 286
151 155 158 157 158 161 162 167 171 172 176 181 188 191 196 198 207 213 205 210 211 202 179 190 217 226 231 270 282 270 264 259 254 266 267 269 275 275 265 264 292 300 291
149 154 154 154 156 162 169 170 172 174 178 186 189 195 201 206 212 222 223 224 220 206 186 201 220 225 221 233 249 257 265 253 238 243 247 247 257 248 255 267 230 238 281
149 151 152 157 159 162 164 163 170 180 180 186 194 198 206 210 211 216 221 222 221 211 208 219 222 224 224 223 229 246 255 253 242 234 240 250 253 242 230 238 252 233 233
153 154 156 159 158 155 157 162 172 178 181 191 202 204 211 206 211 222 223 221 223 219 219 224 223 225 230 227 224 233 237 241 246 243 235 242 247 248 236 230 237 241 235
151 154 158 158 161 165 167 174 180 183 185 188 204 213 211 204 216 226 225 218 222 223 219 221 226 231 232 229 226 234 235 234 240 244 242 243 241 246 244 238 238 240 237
158 159 163 166 169 172 174 177 180 183 181 181 198 211 212 216 224 227 226 222 223 225 223 219 224 229 232 233 235 235 235 234 234 235 240 244 238 244 243 240 242 246 251
166 176 181 178 171 171 174 174 176 175 178 185 202 213 221 224 227 230 230 228 226 226 228 228 228 228 230 233 236 239 241 241 240 235 235 237 237 244 244 244 242 244 252
182 186 188 186 177 175 175 172 177 176 177 189 207 219 228 229 229 231 232 233 233 234 232 231 232 229 229 231 231 242 245 242 246 245 242 237 235 239 243 246 240 240 247
195 185 186 192 195 189 181 178 184 180 178 200 214 218 224 228 228 230 232 233 237 238 236 236 234 234 237 238 239 243 244 244 242 247 247 245 241 245 252 255 253 244 242
201 197 197 199 201 193 186 193 192 183 195 213 218 213 215 221 228 231 232 236 237 237 240 240 235 237 241 244 245 245 243 243 245 246 247 254 249 248 243 256 260 260 259
220 197 192 205 205 186 184 188 188 196 210 220 220 211 210 222 226 229 236 240 240 240 241 243 240 242 245 242 244 245 242 243 247 247 245 246 251 245 239 240 249 252 256
219 218 196 206 210 202 195 188 203 210 219 225 224 217 213 225 229 231 237 239 238 245 246 244 240 244 249 243 243 239 232 243 251 253 252 247 247 255 252 243 248 258 259
134 174 182 238 231 227 189 197 219 221 229 227 222 218 220 229 233 235 239 241 238 241 244 248 241 240 246 247 242 235 226 241 251 255 255 255 255 260 259 245 242 256 260
222 216 217 227 232 219 194 222 232 232 230 221 222 228 229 230 234 237 237 241 242 245 248 250 250 242 243 249 242 235 225 233 247 255 257 255 263 265 265 261 247 254 259
239 222 221 237 236 213 207 229 235 230 216 216 228 234 234 233 230 229 239 240 236 243 249 254 257 250 245 242 240 242 243 248 244 252 255 257 266 267 265 264 258 263 267
243 224 225 242 240 219 211 230 237 217 209 221 232 236 234 231 223 219 228 236 234 237 245 246 252 257 250 247 251 253 255 259 257 256 262 269 270 272 267 260 261 262 255
246 233 234 245 250 236 225 232 232 208 211 228 236 235 231 235 232 225 219 225 232 238 244 248 254 261 261 255 249 245 254 261 265 266 268 274 273 264 259 263 261 247 239
247 237 237 244 253 250 240 237 226 210 222 230 234 237 233 232 234 235 231 233 236 234 241 244 244 253 262 256 257 261 253 250 254 271 264 259 258 250 249 248 244 235 237
250 249 246 250 256 253 248 241 226 216 224 233 232 231 231 231 231 238 262 258 248 258 256 252 252 256 259 268 269 267 266 266 266 268 258 258 254 252 253 252 249 238 236
Height
1496 1497 1499 1502 1503 1506 1507 1509 1511 1513 1515 1516 1517 1519 1520 1521 1522 1523 1524 1524 1525 1525 1525 1525 1525 1525 1525 1525 1525 1524 1524 1524 1524 1523 1523 1523 1523 1522 1522 1522 1521 1521 1520
1496 1498 1500 1502 1503 1505 1507 1509 1511 1512 1514 1516 1517 1519 1520 1521 1522 1522 1523 1524 1524 1524 1524 1524 1524 1524 1524 1523 1524 1523 1522 1522 1522 1522 1521 1521 1522 1521 1520 1520 1519 1519 1518
1496 1498 1500 1502 1503 1505 1507 1509 1510 1511 1513 1515 1517 1518 1519 1520 1521 1521 1522 1522 1523 1523 1523 1523 1522 1523 1522 1522 1522 1522 1521 1521 1521 1521 1521 1521 1520 1520 1519 1518 1517 1517 1516
1496 1498 1500 1502 1503 1505 1507 1509 1510 1511 1512 1514 1515 1516 1517 1518 1519 1520 1521 1521 1521 1522 1522 1521 1521 1521 1521 1521 1520 1520 1519 1519 1519 1519 1519 1520 1519 1519 1517 1517 1515 1514 1513
1495 1497 1499 1501 1503 1504 1506 1507 1508 1510 1512 1513 1514 1515 1516 1517 1519 1519 1519 1519 1520 1520 1520 1520 1520 1519 1519 1519 1518 1518 1517 1517 1517 1517 1517 1517 1517 1516 1516 1514 1513 1512 1511
1495 1497 1499 1501 1502 1504 1505 1506 1508 1509 1511 1513 1514 1515 1516 1516 1517 1517 1517 1518 1518 1518 1518 1518 1517 1517 1517 1516 1516 1516 1515 1515 1515 1514 1514 1514 1514 1514 1513 1512 1510 1509 1508
1494 1496 1498 1499 1501 1503 1504 1506 1507 1509 1510 1512 1512 1513 1514 1515 1515 1515 1515 1516 1516 1516 1516 1515 1515 1515 1515 1514 1513 1513 1513 1513 1512 1512 1512 1511 1511 1511 1511 1510 1508 1506 1504
1494 1495 1497 1498 1499 1501 1503 1505 1506 1508 1509 1510 1511 1512 1512 1513 1513 1513 1513 1514 1514 1514 1514 1513 1513 1512 1512 1511 1511 1510 1510 1510 1509 1509 1509 1508 1508 1508 1507 1507 1506 1503 1502
1492 1494 1495 1497 1498 1500 1502 1503 1505 1506 1507 1508 1509 1509 1510 1510 1511 1511 1511 1511 1511 1511 1511 1511 1510 1510 1509 1509 1508 1508 1507 1507 1506 1506 1506 1505 1505 1504 1504 1503 1503 1502 1499
1491 1492 1494 1495 1497 1498 1500 1502 1503 1504 1505 1505 1506 1507 1507 1508 1508 1508 1508 1508 1508 1508 1508 1507 1507 1507 1506 1506 1505 1505 1504 1504 1503 1503 1502 1502 1501 1501 1500 1500 1499 1498 1497
1490 1491 1492 1494 1495 1497 1498 1499 1501 1501 1502 1503 1503 1504 1504 1504 1505 1505 1505 1505 1505 1505 1504 1504 1504 1503 1503 1502 1502 1502 1501 1500 1500 1499 1499 1498 1498 1497 1496 1495 1495 1494 1493
1489 1490 1491 1492 1494 1495 1496 1497 1498 1499 1499 1500 1500 1501 1501 1501 1501 1502 1502 1502 1501 1501 1501 1501 1500 1500 1499 1499 1498 1498 1497 1497 1496 1495 1495 1494 1494 1493 1492 1491 1490 1489 1488
1488 1489 1490 1491 1492 1493 1494 1494 1495 1496 1496 1497 1497 1497 1497 1497 1497 1498 1498 1498 1497 1497 1497 1497 1496 1496 1495 1495 1494 1494 1493 1493 1492 1491 1490 1490 1489 1488 1487 1486 1485 1485 1484
1486 1487 1488 1489 1490 1490 1491 1492 1492 1493 1493 1493 1493 1493 1493 1494 1494 1494 1494 1493 1493 1493 1493 1492 1492 1492 1491 1491 1490 1490 1489 1488 1488 1487 1486 1485 1485 1484 1483 1482 1481 1480 1479
1484 1485 1485 1486 1487 1487 1488 1488 1489 1489 1489 1489 1490 1490 1490 1490 1490 1489 1489 1489 1489 1489 1488 1488 1487 1487 1487 1486 1486 1485 1484 1484 1483 1482 1482 1481 1480 1479 1478 1477 1476 1475 1474
1482 1482 1483 1483 1484 1484 1484 1485 1485 1486 1486 1486 1486 1486 1486 1486 1485 1485 1485 1485 1484 1484 1484 1483 1483 1482 1482 1482 1481 1480 1480 1479 1478 1477 1477 1476 1475 1474 1473 1472 1471 1470 1469
1479 1480 1480 1480 1481 1481 1481 1481 1481 1482 1482 1482 1482 1482 1482 1481 1481 1481 1481 1480 1480 1480 1479 1479 1478 1478 1477 1477 1476 1476 1475 1474 1473 1472 1472 1471 1470 1469 1468 1467 1466 1465 1464
1477 1477 1477 1477 1478 1478 1477 1478 1478 1478 1478 1477 1477 1477 1477 1477 1477 1477 1476 1476 1476 1475 1475 1474 1474 1473 1473 1472 1472 1471 1470 1469 1468 1468 1467 1466 1465 1464 1463 1461 1460 1459 1458
1474 1474 1474 1474 1474 1474 1474 1474 1474 1474 1474 1473 1473 1473 1473 1473 1473 1472 1472 1472 1471 1471 1470 1470 1469 1468 1468 1468 1467 1466 1465 1464 1463 1463 1462 1461 1459 1459 1458 1456 1454 1453 1452
1471 1471 1471 1470 1470 1470 1470 1470 1470 1470 1469 1469 1469 1469 1469 1469 1468 1468 1467 1467 1467 1466 1466 1465 1465 1464 1463 1463 1462 1461 1460 1459 1458 1457 1456 1455 1454 1453 1452 1451 1449 1448 1447
1468 1468 1467 1467 1466 1466 1466 1466 1465 1465 1465 1465 1465 1465 1464 1464 1464 1463 1463 1463 1462 1461 1461 1460 1460 1459 1459 1458 1457 1456 1455 1453 1452 1451 1451 1450 1449 1448 1447 1446 1444 1443 1442
1464 1464 1464 1463 1463 1462 1462 1461 1461 1461 1461 1461 1460 1460 1460 1459 1459 1459 1458 1458 1457 1457 1456 1455 1455 1454 1453 1453 1452 1451 1450 1448 1447 1446 1445 1444 1443 1442 1441 1440 1439 1438 1437
1461 1460 1460 1459 1458 1458 1457 1457 1456 1456 1456 1456 1456 1455 1455 1455 1454 1454 1454 1453 1453 1452 1451 1450 1449 1449 1448 1448 1447 1445 1444 1443 1442 1440 1439 1438 1437 1436 1435 1434 1433 1432 1431
1457 1456 1455 1454 1453 1453 1453 1452 1452 1452 1451 1451 1451 1450 1450 1450 1450 1449 1449 1448 1448 1447 1446 1445 1444 1443 1442 1442 1441 1440 1439 1438 1436 1435 1434 1433 1431 1430 1429 1428 1427 1426 1426
1452 1452 1451 1450 1449 1448 1448 1448 1447 1447 1446 1446 1446 1445 1445 1445 1444 1444 1444 1443 1442 1442 1441 1440 1439 1438 1436 1436 1435 1434 1433 1432 1431 1429 1428 1426 1425 1424 1423 1422 1421 1421 1420
1447 1446 1446 1445 1444 1444 1443 1443 1442 1442 1441 1441 1440 1440 1440 1439 1439 1439 1438 1437 1437 1436 1436 1435 1434 1432 1432 1430 1429 1428 1427 1426 1425 1423 1421 1420 1419 1418 1417 1416 1415 1415 1414